Overview Statistics Trail Chart Weather Telemetry Raw packets
 

This is the latest recevied weather packets stored in our database for station/object W1HVD. If no packets are shown the sender has not sent any weather packets the latest 10 day(s).

<< 53 54 55 56 57 58 59 >>
Time Temp. Humidity Pressure Rain* Wind** Luminosity Snow
1777317587 18.89° C 41% 1024.1 hPa 0 mm - 542 W/m² -
1777317284 18.33° C 38% 1024.1 hPa 0 mm - 555 W/m² -
1777316979 17.78° C 39% 1024 hPa 0 mm - 566 W/m² -
1777316677 18.33° C 39% 1024.3 hPa 0 mm - 577 W/m² -
1777316373 18.33° C 40% 1024.2 hPa 0 mm - 587 W/m² -
1777316071 17.78° C 40% 1024.3 hPa 0 mm - 597 W/m² -
1777315769 18.33° C 39% 1024.2 hPa 0 mm - 606 W/m² -
1777315467 18.33° C 39% 1024.3 hPa 0 mm - 616 W/m² -
1777315164 18.33° C 39% 1024.1 hPa 0 mm - 627 W/m² -
1777314860 17.78° C 40% 1024.2 hPa 0 mm - 636 W/m² -
1777314556 17.78° C 41% 1024.2 hPa 0 mm - 645 W/m² -
1777314254 18.33° C 43% 1024.3 hPa 0 mm - 652 W/m² -
1777313951 17.22° C 39% 1024.2 hPa 0 mm - 660 W/m² -
1777313648 17.78° C 40% 1024.4 hPa 0 mm - 670 W/m² -
1777313346 17.78° C 40% 1024.4 hPa 0 mm - 675 W/m² -
1777313042 18.33° C 43% 1024.2 hPa 0 mm - 680 W/m² -
1777312739 18.33° C 38% 1024.3 hPa 0 mm - 689 W/m² -
1777312435 17.78° C 40% 1024.3 hPa 0 mm - 694 W/m² -
1777312133 17.22° C 43% 1024.4 hPa 0 mm - 700 W/m² -
1777311830 17.22° C 41% 1024.4 hPa 0 mm - 705 W/m² -
1777311527 17.22° C 42% 1024.5 hPa 0 mm - 711 W/m² -
1777311224 17.78° C 43% 1024.3 hPa 0 mm - 716 W/m² -
1777310922 17.22° C 45% 1024.4 hPa 0 mm - 721 W/m² -
1777310620 17.78° C 40% 1024.4 hPa 0 mm - 724 W/m² -
1777310317 17.22° C 42% 1024.6 hPa 0 mm - 728 W/m² -

* Rain latest hour (hover to see other rain measurements)
** Current wind speed in m/s (hover to see current wind gust speed)